Weather History for KDXR - January, 2014

Change the Weather History Date:

Friday, January 17, 2014

  Actual Average Record
Temperature  
Mean Temperature 30 °F -  
Max Temperature 41 °F 31 °F 57 °F (1973)
Min Temperature 19 °F 12 °F -9 °F (2009)
Degree Days  
Heating Degree Days 35    
Moisture  
Dew Point 23 °F    
Average Humidity 75    
Maximum Humidity 89    
Minimum Humidity 51    
Precipitation  
Precipitation 0.00 in - - ()
Sea Level Pressure  
Sea Level Pressure 29.95 in    
Wind  
Wind Speed 2 mph (SSW)    
Max Wind Speed 12 mph    
Max Gust Speed 16 mph    
Visibility 8 miles    
Events      
Averages and records for this station are not official NWS values.
T = Trace of Precipitation, MM = Missing Value Source: NWS Daily Summary

Daily Weather History Graph

Daily Weather History Graph

Search for Another Location

Airport or City:

Trip Planner

Search our weather history database for the weather conditions in past years. The results will help you decide how hot, cold, wet, or windy it might be!

Date:

Astronomy

Jan. 17, 2014 Rise Set
Actual Time 7:16 AM EST 4:51 PM EST
Civil Twilight 6:46 AM EST 5:22 PM EST
Nautical Twilight 6:12 AM EST 5:56 PM EST
Astronomical Twilight 5:39 AM EST 6:29 PM EST
Moon 6:37 PM EST (1/17) 7:41 AM EST (1/17)
Length of Visible Light 10h 35m
Length of Day
9h 35m
Full, 98% of the Moon is Illuminated
Jan 17
Full
Jan 24
Last Quarter
Jan 30
New
Feb 6
First Quarter
Feb 14
Full

Hourly Weather History & Observations

Time (EST) Temp. Windchill Dew Point Humidity Pressure Visibility Wind Dir Wind Speed Gust Speed Precip Events Conditions
12:53 AM 26.1 °F - 21.9 °F 84% 29.93 in 7.0 mi Calm Calm - N/A   Clear
1:53 AM 24.1 °F - 21.0 °F 88% 29.94 in 6.0 mi Calm Calm - N/A   Clear
2:53 AM 24.1 °F - 19.9 °F 84% 29.95 in 8.0 mi Calm Calm - N/A   Clear
3:53 AM 23.0 °F - 19.0 °F 85% 29.95 in 7.0 mi Calm Calm - N/A   Clear
4:53 AM 21.9 °F - 18.0 °F 85% 29.95 in 8.0 mi Calm Calm - N/A   Clear
5:53 AM 21.0 °F - 17.1 °F 85% 29.96 in 8.0 mi Calm Calm - N/A   Clear
6:53 AM 19.9 °F - 16.0 °F 85% 29.97 in 8.0 mi Calm Calm - N/A   Clear
8:53 AM 27.0 °F - 24.1 °F 89% 29.98 in 6.0 mi Calm Calm - N/A   Scattered Clouds
9:53 AM 34.0 °F - 26.1 °F 73% 29.99 in 8.0 mi Calm Calm - N/A   Clear
10:53 AM 37.0 °F 32.4 °F 21.0 °F 52% 29.99 in 10.0 mi SSW 5.8 mph - N/A   Partly Cloudy
11:53 AM 37.9 °F 31.5 °F 21.0 °F 51% 29.95 in 10.0 mi South 9.2 mph - N/A   Partly Cloudy
12:53 PM 39.9 °F 34.5 °F 23.0 °F 51% 29.93 in 10.0 mi South 8.1 mph - N/A   Clear
1:53 PM 41.0 °F 34.3 °F 24.1 °F 51% 29.93 in 10.0 mi SSW 11.5 mph 16.1 mph N/A   Mostly Cloudy
2:53 PM 39.9 °F 35.1 °F 25.0 °F 55% 29.93 in 10.0 mi SW 6.9 mph - N/A   Clear
3:53 PM 39.9 °F 34.5 °F 27.0 °F 60% 29.94 in 10.0 mi South 8.1 mph - N/A   Partly Cloudy
4:53 PM 36.0 °F 33.3 °F 27.0 °F 70% 29.93 in 10.0 mi SE 3.5 mph - N/A   Clear
5:53 PM 33.1 °F - 26.1 °F 75% 29.94 in 8.0 mi Calm Calm - N/A   Clear
6:53 PM 30.9 °F 27.5 °F 25.0 °F 79% 29.95 in 10.0 mi SW 3.5 mph - N/A   Clear
7:53 PM 28.9 °F - 25.0 °F 85% 29.95 in 8.0 mi Calm Calm - N/A   Clear
8:53 PM 30.0 °F - 25.0 °F 82% 29.95 in 8.0 mi Calm Calm - N/A   Clear
9:53 PM 30.0 °F - 25.0 °F 82% 29.95 in 8.0 mi Calm Calm - N/A   Clear
10:53 PM 28.9 °F - 25.0 °F 85% 29.94 in 7.0 mi Calm Calm - N/A   Clear
11:53 PM 30.0 °F - 26.1 °F 85% 29.91 in 6.0 mi Calm Calm - N/A   Mostly Cloudy